Regional Weather Roundup
Issued by NWS

Home | Current Version | Previous Version | Graphics & Text | Print | Product List | Glossary On
Versions: 1 2 3 4 5 6 7 8 9 10 11 12 13 14 15 16 17 18 19 20 21 22 23 24 25 26 27
000
ASUS43 KDMX 251607
RWRIA

WEATHER ROUNDUP FOR IOWA
NATIONAL WEATHER SERVICE DES MOINES IA
1100 AM CDT SAT OCT 25 2014

NOTE: "FAIR" INDICATES FEW OR NO CLOUDS BELOW 12,000 FEET WITH NO
SIGNIFICANT WEATHER AND/OR OBSTRUCTIONS TO VISIBILITY.

* - THESE STATIONS ARE NOT NWS STATIONS...THUS NOT UNDER NWS
QUALITY CONTROL.  THEY ALSO DO NOT REPORT WEATHER SUCH
AS PRECIPITATION OR FOG.

IAZ001>003-012>014-020>022-031>034-043>046-251700-
   NORTHWEST IOWA

CITY           SKY/WX    TMP DP  RH WIND       PRES   REMARKS
CARROLL *      SUNNY     63  41  45 NE8       30.13R
CHEROKEE *     SUNNY     57  45  62 CALM      30.14S
DENISON *      SUNNY     61  43  51 E9        30.11S
LE MARS *      SUNNY     59  45  58 NE5       30.15S
ORANGE CITY *  SUNNY     63  37  39 NE6       30.14R
SHELDON *      SUNNY     61  41  48 N5        30.13S
SIOUX CITY     SUNNY     60  46  59 N3        30.14S
SPENCER        SUNNY     61  38  42 N12       30.13S
STORM LAKE *   SUNNY     61  36  39 NE9       30.14S
$$

IAZ055>058-069>071-079>083-090>094-251700-
   SOUTHWEST IOWA

CITY           SKY/WX    TMP DP  RH WIND       PRES   REMARKS
AUDUBON *      SUNNY     63  37  39 NE9       30.13S
CLARINDA *     SUNNY     66  45  45 NE10      30.12S
COUNCIL BLFS * SUNNY     64  43  45 E10       30.10F
CRESTON *      SUNNY     64  41  42 NE12G20   30.11S
HARLAN  *      SUNNY     64  43  45 NE10      30.15S
LAMONI         SUNNY     63  50  62 NE9       30.10S
RED OAK *      SUNNY     63  50  63 NE5       30.11F
SHENANDOAH *   SUNNY     63  52  67 NE6       30.12S
$$

IAZ047>049-059>061-072>074-084-251700-
   CENTRAL IOWA

CITY           SKY/WX    TMP DP  RH WIND       PRES   REMARKS
AMES           SUNNY     62  42  47 N9        30.10S
ANKENY *       SUNNY     64  43  45 N8        30.10S
CHARITON *     SUNNY     63  46  55 N8        30.10S
DES MOINES     MOSUNNY   64  44  48 N7        30.10S
GRINNELL*      SUNNY     64  43  45 N8        30.09S
KNOXVILLE *    SUNNY     63  43  48 N5        30.09R
MARSHALLTOWN   SUNNY     61  46  57 N10       30.09S
PELLA *        SUNNY     64  48  55 N5        30.10S
PERRY *          N/A     63  43  48 N6        30.11S
$$

IAZ004>006-015-016-023>025-035-036-251700-
   NORTH CENTRAL IOWA

CITY           SKY/WX    TMP DP  RH WIND       PRES   REMARKS
ALGONA *       SUNNY     61  37  41 N13       30.13R
CLARION *      SUNNY     61  39  44 N9        30.11S
ESTHERVILLE    SUNNY     60  35  39 N8        30.13R
FORT DODGE *   SUNNY     61  39  44 N7        30.13R
MASON CITY     SUNNY     59  38  45 NW16      30.11R
FOREST CITY *  SUNNY     59  41  51 NW14      30.11S
IOWA FALLS *     N/A     61  41  48 N9        30.12R
$$

IAZ007>011-017>019-026>030-037>042-050>054-066-251700-
   NORTHEAST IOWA

CITY           SKY/WX    TMP DP  RH WIND       PRES   REMARKS
CEDAR RAPIDS   SUNNY     62  48  60 N8        30.06R
CHARLES CITY * SUNNY     59  39  47 NW14G22   30.08S
CLINTON *      SUNNY     64  45  48 NW8       30.05S
DECORAH *      SUNNY     59  39  47 NW8G15    30.04S
DUBUQUE        SUNNY     62  38  40 N15       30.03R
MONTICELLO *   SUNNY     63  43  48 NW14      30.05R
OELWEIN *      SUNNY     59  45  58 NW13      30.08R
WATERLOO       SUNNY     59  44  57 NW9       30.09R
$$

IAZ064-065-067-068-078-251700-
   EAST CENTRAL IOWA

CITY           SKY/WX    TMP DP  RH WIND       PRES   REMARKS
DAVENPORT      SUNNY     65  44  46 N13       30.03S
IOWA CITY      SUNNY     63  48  58 NW8       30.07R
MT. PLEASANT * SUNNY     64  46  52 N9        30.07S
MUSCATINE *    SUNNY     66  48  52 N9        30.06R
QUAD CITIES    SUNNY     66  45  46 NW9       30.03R
$$

IAZ062-063-075>077-085>089-095>099-251700-
   SOUTHEAST IOWA

CITY           SKY/WX    TMP DP  RH WIND       PRES   REMARKS
BURLINGTON     SUNNY     66  52  60 N7        30.05R
FAIRFIELD *    SUNNY     64  46  52 N9        30.07S
FORT MADISON * SUNNY     66  52  59 N7        30.06S
KEOKUK *       SUNNY     64  52  63 N8        30.05S
OSKALOOSA *      N/A     64  46  52 N6        30.08S
CENTERVILLE *  SUNNY     64  48  55 N6        30.10S
OTTUMWA        SUNNY     64  46  52 N8        30.08R
WASHINGTON *   SUNNY     64  46  52 N10G16    30.07R
$$

ABBREVIATIONS USED IN REMARKS
   TC - TEMPERATURES IN CELSIUS
  WCI - WIND CHILL INDEX
   HX - HEAT INDEX
  VSB - VISIBILITY
$$




USA.gov is the U.S. government's official web portal to all federal, state and local government web resources and services.